User: anonymous   Login
Location: Habighorst
(52.7089°N, 10.2278°E)
Time: 13:19:34
(UTC+00:00)
Language:

Okean 3 - Orbit

View from above orbital plane
View from above orbital plane
View from above satellite
View from above satellite

Ground track
Ground track

The orbit is defined by the following mean orbital elements,

1 21397U          26069.14448523 +.00000000 +00000-0 +32585-3 0 00005
2 21397  82.5191 336.4029 0013917 336.6290  23.4302 15.04809379    07
Epoch (UTC): 10 March 2026 03:28:03
Eccentricity: 0.0013917
inclination: 82.5191°
perigee height: 542 km
apogee height: 562 km
right ascension of ascending node: 336.4029°
argument of perigee: 336.6290°
revolutions per day: 15.04809379
mean anomaly at epoch: 23.4302°

The dashed part of the orbit path shows where the satellite is in the earth's shadow,  

DLR